Theta_e
313 315 314 314 315 316 316 315 316 316 316 314 314 314 313 313 313 307 304 307 310 312 315 316 317 318 319 320 320 320 322 324 327 327 327 327 326 326 326 325 324 322 319 322 328 330 332 329 327 329 329 327 327 328 329 329 329 330 334 334 333 334 333 333 334 333 331 326 323 324 323 324 324 323 323 322 322 323 323 323 325 327 329 331 335 337 336 334
312 314 314 313 314 316 316 316 316 316 316 315 314 314 314 314 314 312 306 304 307 309 312 315 317 318 318 319 320 320 321 324 326 327 327 327 327 326 326 326 324 321 318 323 329 329 330 329 326 328 329 329 328 329 330 330 329 330 335 335 333 334 333 333 332 331 329 326 323 323 324 324 325 324 322 322 323 322 323 324 325 327 331 333 334 336 335 333
312 313 313 313 313 314 316 316 316 316 316 316 315 314 314 314 314 314 310 305 304 306 309 313 316 317 318 319 320 321 322 324 325 325 325 326 327 327 326 325 324 321 318 324 329 328 328 328 326 328 330 331 329 328 330 330 330 330 333 335 335 334 333 332 331 329 328 326 325 323 322 323 324 324 323 323 324 323 323 324 324 325 332 334 333 335 335 334
312 312 312 313 314 314 315 316 316 316 316 316 316 314 314 314 314 315 314 309 304 303 306 311 314 317 318 318 320 321 323 324 325 324 324 324 325 327 327 326 324 321 318 322 329 330 330 331 329 328 330 332 331 329 329 330 331 331 331 333 334 333 333 332 331 329 326 326 327 325 324 324 323 323 323 324 325 325 324 323 324 323 329 334 332 334 335 334
311 311 311 313 314 314 314 316 316 316 316 315 316 315 314 313 313 314 315 312 307 303 304 309 313 316 317 318 320 321 323 325 325 323 323 324 325 326 327 326 325 321 318 322 329 332 333 334 330 328 330 331 332 331 329 329 329 331 331 331 332 332 333 332 330 328 326 326 328 327 326 325 323 324 324 324 324 324 324 323 323 324 330 333 332 334 335 335
310 311 311 312 313 314 314 315 316 316 315 316 315 315 314 313 313 313 314 314 309 303 303 307 311 315 317 318 319 321 324 326 325 323 324 324 323 326 327 326 326 321 320 325 330 331 332 333 330 328 330 330 332 332 330 328 329 331 331 330 331 331 331 331 329 327 327 328 329 327 325 324 325 326 326 325 324 324 324 323 322 324 331 334 332 334 335 336
309 310 311 311 312 313 313 314 315 315 315 316 315 314 314 314 313 313 313 315 311 304 302 306 310 314 316 318 320 321 324 325 324 324 325 323 321 325 327 326 326 322 323 329 330 329 330 330 328 326 328 329 331 332 331 329 329 331 331 330 331 330 330 330 328 328 328 328 328 326 325 326 327 328 326 325 325 325 325 324 323 323 328 333 334 335 334 336
309 309 310 311 311 312 313 313 314 315 316 316 315 315 314 314 314 313 313 314 312 306 302 305 309 313 316 318 320 321 322 323 323 325 326 324 320 324 327 327 326 323 325 329 329 328 328 327 325 324 326 328 329 330 331 332 331 331 331 330 329 330 330 330 329 328 328 328 327 326 327 328 329 328 326 325 326 326 326 325 323 323 325 328 332 335 334 335
308 308 309 310 311 311 312 313 313 314 316 316 315 315 314 314 314 313 312 311 310 308 303 303 307 312 316 318 319 320 321 320 320 322 324 325 322 323 327 328 326 324 326 328 327 326 326 326 324 324 325 327 328 328 329 332 332 330 330 330 329 330 330 330 329 328 328 328 328 328 329 330 329 329 328 328 328 329 330 328 325 325 326 325 328 332 334 334
308 308 308 309 310 311 311 312 312 313 315 315 314 314 313 314 314 313 312 309 308 308 305 303 307 312 316 318 318 320 320 320 321 321 323 325 325 326 327 327 326 325 325 326 326 324 324 325 324 323 324 324 325 326 328 331 331 330 330 329 329 330 330 330 329 329 329 329 329 330 330 331 329 329 330 330 329 329 331 329 327 327 328 326 326 328 331 331
307 307 307 308 309 310 311 312 312 313 315 315 314 314 313 314 314 314 313 309 307 308 307 304 307 312 316 317 318 320 320 320 323 324 325 324 325 328 327 327 326 324 325 326 326 323 322 323 323 322 322 322 324 325 327 329 330 329 329 329 329 330 330 330 329 329 330 329 330 329 329 330 328 329 329 330 329 328 328 329 328 328 328 328 327 327 330 330
306 307 307 307 308 309 310 311 312 312 314 315 314 314 314 314 314 314 313 310 308 308 307 306 308 312 316 317 317 318 319 322 324 324 326 324 324 327 327 327 325 324 325 326 326 323 322 324 325 326 324 323 323 324 326 327 328 328 328 330 330 330 331 330 329 329 330 330 329 328 329 330 329 329 328 328 329 328 328 329 329 329 329 330 329 328 330 330
307 307 307 307 307 308 309 310 311 312 313 314 314 314 314 313 313 314 313 311 309 309 308 307 309 313 315 316 316 316 318 321 323 325 326 325 323 325 327 327 325 324 325 326 327 325 325 327 330 329 326 324 323 323 325 325 327 328 328 329 330 330 330 330 329 329 329 330 329 329 330 331 329 329 328 328 327 328 329 328 330 330 330 331 331 330 330 329
307 306 307 307 307 308 309 310 311 312 312 314 315 314 314 313 313 314 313 311 309 308 308 308 309 313 315 315 315 316 317 318 321 325 327 325 324 325 326 326 325 325 325 325 326 326 327 329 330 330 326 324 323 324 325 325 326 328 328 328 330 330 329 329 330 330 329 330 329 329 330 331 330 330 329 328 327 327 328 328 329 330 329 331 332 333 331 329
306 306 306 307 307 308 309 309 310 311 312 313 314 314 313 313 313 314 312 311 310 308 309 310 311 314 315 314 314 315 316 318 320 322 325 325 326 326 326 326 326 326 325 325 325 326 328 328 329 330 328 325 323 326 326 325 326 327 328 327 328 329 327 326 329 330 330 330 328 329 330 331 330 331 330 329 327 327 328 329 329 329 329 330 331 332 332 330
306 306 306 306 306 307 309 309 310 311 311 313 314 314 313 313 314 313 312 311 310 309 310 312 313 314 313 313 314 314 316 319 320 320 323 324 326 326 326 327 327 326 325 324 324 324 326 327 328 329 329 325 324 327 328 326 326 327 327 326 327 329 327 325 326 329 330 329 329 329 330 331 330 331 330 329 328 328 329 329 330 330 330 330 331 331 331 331
306 306 306 306 306 307 308 309 309 310 311 312 314 314 313 313 313 313 312 311 310 310 311 312 313 314 313 313 316 317 317 319 319 320 321 323 325 325 326 326 326 326 325 324 323 323 324 325 326 327 328 326 324 327 329 327 326 328 327 326 325 325 326 326 326 326 328 330 329 328 328 329 330 330 330 331 330 329 330 330 331 331 330 331 332 331 331 331
305 306 306 306 306 307 308 309 309 310 311 312 314 314 313 313 313 312 311 311 311 311 311 312 313 312 312 312 314 317 317 317 318 319 320 322 324 324 325 325 326 325 325 325 324 322 324 324 324 325 326 327 325 325 327 326 325 326 328 326 323 321 322 325 326 326 328 330 330 329 328 328 328 328 328 330 331 330 330 331 331 330 331 331 332 332 332 331
306 306 305 305 306 306 308 309 308 310 311 312 314 314 313 313 312 311 310 310 310 309 309 312 313 312 313 314 312 314 317 317 317 317 319 322 323 323 323 324 325 325 326 328 326 323 323 324 325 325 325 325 325 324 324 323 321 324 325 325 325 322 320 321 324 328 330 330 331 330 329 329 329 328 328 328 329 330 330 330 331 330 331 331 331 331 332 333
305 306 305 305 306 306 307 308 308 310 312 312 314 313 313 313 312 311 310 310 310 308 308 311 312 311 314 317 313 313 317 318 317 317 319 322 323 323 323 323 325 326 327 329 326 324 323 324 325 325 323 322 323 323 322 321 321 321 322 323 324 324 322 321 322 328 330 330 331 331 330 330 329 329 329 328 328 329 329 330 330 330 331 330 330 331 331 333
305 306 306 305 306 306 307 308 308 310 311 312 313 312 312 312 311 311 311 311 310 308 308 310 311 311 314 318 316 315 318 319 318 317 320 322 322 323 323 323 326 327 327 327 327 325 324 324 324 322 322 321 321 322 321 322 322 320 320 320 322 324 324 324 323 326 330 330 330 331 331 330 330 329 328 328 327 328 328 329 328 328 329 330 330 330 330 330
305 306 306 306 306 305 306 308 308 309 311 312 313 312 312 311 309 309 310 310 310 309 309 311 312 311 313 316 317 317 319 320 320 319 321 322 321 321 323 323 325 327 326 326 327 326 327 326 323 320 321 320 320 321 321 322 323 322 321 321 322 323 324 324 325 325 327 329 330 330 330 328 328 327 327 326 326 326 327 327 328 328 328 328 328 329 329 329
306 306 306 306 306 305 307 309 308 309 311 312 312 312 311 309 308 308 308 309 310 309 309 311 313 312 312 314 315 317 319 319 319 320 320 322 322 320 322 324 324 327 327 326 327 327 327 326 323 320 320 320 321 321 321 322 322 323 323 322 322 323 323 322 324 325 325 327 330 330 330 327 325 324 323 323 323 323 325 325 326 327 327 327 327 327 327 329
306 306 306 306 306 306 307 308 309 310 312 312 311 312 311 308 308 309 309 309 310 310 309 310 313 313 313 314 315 317 318 317 318 319 319 321 321 320 321 323 323 326 327 325 326 326 326 325 322 320 319 320 321 322 322 323 323 324 325 324 323 323 323 321 322 324 323 324 327 328 329 328 326 325 323 321 321 320 320 322 322 324 326 326 326 327 326 326
306 306 306 306 306 306 307 308 309 310 311 311 311 311 310 308 308 309 309 309 310 310 309 309 311 312 313 314 315 317 318 318 318 319 320 320 320 320 321 322 323 325 326 325 325 326 325 322 321 321 320 321 322 322 323 324 324 324 325 324 324 324 323 322 323 324 324 326 327 328 331 330 326 325 324 321 320 319 320 320 320 321 322 324 324 325 325 325
306 306 306 306 306 306 307 308 309 309 310 310 311 311 310 308 308 309 309 310 310 310 309 310 310 311 313 315 315 316 317 318 317 319 321 320 320 320 320 321 323 324 324 325 325 326 324 321 321 322 322 322 323 322 323 323 324 325 325 324 323 324 325 326 326 326 327 327 325 326 331 330 326 324 324 323 322 320 320 321 320 320 320 321 322 322 323 324
306 306 306 307 306 306 307 308 308 309 309 309 310 310 309 307 308 309 310 310 311 310 309 309 309 310 312 314 314 313 316 318 318 320 321 321 320 320 320 321 322 323 323 324 326 326 324 322 322 322 322 324 324 324 323 323 325 325 325 326 324 323 325 327 328 329 328 326 326 325 328 329 328 326 326 325 325 323 322 322 322 323 323 323 324 324 325 324
306 306 306 307 306 306 307 308 307 309 308 308 310 309 307 307 308 309 311 311 311 310 309 309 309 309 312 315 314 312 315 318 318 320 321 321 320 319 321 322 322 323 323 324 328 328 325 323 323 323 323 324 324 324 324 324 325 324 325 328 325 323 325 325 328 330 328 328 331 328 326 329 328 325 326 326 325 324 324 324 323 325 327 328 327 327 328 327
306 306 307 307 306 306 307 307 307 308 308 308 309 308 306 307 308 310 311 311 310 308 309 311 310 310 313 315 314 311 313 315 316 319 320 319 318 318 321 322 321 322 323 325 327 328 326 324 323 323 323 324 323 324 324 324 325 324 326 328 325 325 326 326 329 330 328 330 330 328 327 330 327 322 324 326 325 324 324 323 323 323 324 328 330 331 331 328
306 306 307 306 306 307 307 307 308 308 308 309 309 308 308 308 309 310 311 311 309 307 309 310 309 312 314 315 315 313 312 315 317 320 319 318 319 318 320 321 320 322 324 324 324 324 325 324 324 324 324 322 322 323 324 324 325 326 325 326 328 329 328 328 328 328 330 331 329 327 326 328 327 323 322 323 324 325 326 324 323 323 323 325 329 333 332 330
305 306 307 306 306 307 306 307 307 308 309 310 309 309 308 308 309 310 310 311 310 309 311 309 309 314 315 314 315 314 312 315 318 320 320 320 320 319 320 321 321 322 323 324 324 323 324 325 326 326 325 323 322 324 325 324 326 328 328 329 330 332 333 330 328 329 331 330 327 326 326 327 327 325 323 323 323 325 327 325 324 325 326 326 327 328 329 330
305 305 306 306 306 306 307 307 307 307 309 309 309 309 309 309 309 310 311 310 309 311 312 310 309 313 314 313 314 314 313 315 318 320 320 319 320 320 320 320 321 322 323 324 324 324 325 324 326 326 327 326 324 326 329 327 328 329 331 332 330 330 332 331 329 330 330 328 326 325 327 327 325 323 322 322 322 326 326 326 326 326 327 329 329 329 331 335
305 305 306 306 307 307 307 307 306 308 310 309 308 308 309 310 309 310 311 309 309 311 311 310 310 312 313 312 313 314 314 314 317 319 318 318 319 320 319 319 320 321 322 322 323 324 325 324 325 326 328 327 325 327 330 329 330 329 328 329 328 328 331 330 328 329 328 326 326 325 326 328 325 321 322 321 320 325 327 327 329 328 328 332 334 334 336 338
304 305 306 306 307 307 307 307 307 309 309 308 307 308 309 310 310 310 310 309 309 311 311 310 310 312 312 311 312 314 314 314 317 317 317 318 319 319 319 320 320 319 320 321 322 323 324 325 325 325 326 326 325 327 327 328 329 327 325 326 326 327 329 328 328 328 327 326 325 325 327 329 326 324 324 322 320 323 325 327 329 328 330 333 336 335 336 338
303 305 306 306 306 307 306 307 308 309 308 306 307 308 309 310 310 309 309 310 311 311 311 311 311 312 313 311 312 314 313 314 316 316 317 318 318 318 319 319 319 319 320 321 321 321 321 323 324 324 324 325 325 326 324 326 328 326 325 327 325 324 324 327 328 327 327 327 326 326 326 325 323 322 323 323 323 322 323 325 325 326 328 332 333 332 334 337
304 304 305 306 306 306 306 306 308 308 306 306 307 308 309 310 310 308 308 311 312 311 312 312 312 312 313 312 312 313 313 313 315 316 317 317 317 317 318 318 319 319 320 320 320 321 320 322 324 324 324 324 324 325 324 325 328 327 327 327 325 324 324 326 327 326 326 328 327 325 325 323 321 322 321 322 324 323 322 322 321 323 326 328 329 330 332 334
304 304 304 305 305 306 306 307 308 307 305 306 307 308 309 310 309 307 308 310 313 312 312 313 313 313 313 312 312 313 313 314 315 316 316 317 317 317 317 318 319 319 319 319 319 321 321 322 325 324 325 325 323 325 325 324 326 328 327 326 325 327 328 327 327 327 327 327 328 326 326 325 324 326 323 321 323 323 322 322 320 322 324 326 329 331 331 332
304 303 303 304 305 305 306 307 307 305 305 306 308 308 308 308 308 307 307 310 313 312 311 312 313 312 312 312 312 312 312 313 314 315 315 316 317 317 317 318 319 319 319 319 320 323 322 323 325 325 325 325 323 325 326 324 324 326 326 325 325 328 329 326 326 328 328 328 328 328 327 325 324 324 322 322 323 321 322 322 321 322 324 325 328 329 330 330
303 303 303 304 304 304 306 307 306 305 305 307 308 308 307 307 308 308 307 309 312 312 311 313 312 311 312 312 312 312 312 312 314 314 314 315 316 317 316 316 318 319 320 320 321 324 323 322 324 326 325 325 325 325 326 326 324 325 326 325 323 325 328 327 325 326 328 328 327 328 327 325 323 322 321 322 322 322 323 323 322 323 323 324 326 329 329 329
303 304 304 304 305 306 306 307 306 305 306 307 308 308 307 306 308 308 307 310 312 312 312 313 312 312 312 312 312 312 312 312 314 314 314 315 315 317 317 316 317 319 320 320 320 322 323 320 322 326 324 325 326 325 325 325 325 325 326 325 323 324 327 328 326 325 327 328 328 328 328 325 322 320 320 320 319 321 322 322 322 323 324 326 328 328 328 326
303 304 305 304 306 307 306 306 306 305 305 307 308 308 306 306 308 308 308 310 313 313 313 312 312 312 312 312 312 312 312 312 314 314 314 315 315 316 317 316 316 318 319 321 321 321 321 320 321 325 324 325 327 323 320 323 325 325 325 326 326 325 326 328 328 326 324 326 327 328 327 326 322 320 320 320 321 321 320 322 323 324 324 324 324 324 324 323
303 304 304 305 306 306 306 306 306 304 305 307 308 306 305 306 309 309 307 310 313 314 314 313 313 312 312 312 312 312 312 312 313 314 314 314 314 315 317 317 317 318 318 320 320 319 321 321 320 322 323 324 322 316 314 319 323 325 324 324 326 326 324 326 327 326 324 324 325 325 326 327 323 322 321 322 324 323 323 324 323 322 321 321 321 321 322 321
303 302 303 306 306 305 306 307 305 304 306 307 306 305 306 306 308 309 309 310 312 313 314 313 313 312 312 312 312 313 313 312 313 314 313 313 313 314 317 318 318 318 318 318 318 317 319 320 319 320 321 320 317 314 313 315 318 323 324 324 325 324 323 324 324 324 325 325 324 326 326 325 323 323 321 321 323 323 322 322 321 321 321 321 322 322 321 320
302 301 302 306 306 305 306 307 306 305 305 306 305 305 306 306 307 309 310 311 312 312 313 313 313 313 313 313 313 313 313 313 313 313 313 313 313 315 318 319 318 317 316 317 318 317 317 318 319 320 321 320 319 318 318 317 317 321 322 321 322 323 323 326 325 323 325 326 325 326 327 325 323 324 321 320 322 321 320 320 321 323 324 323 323 322 321 320
301 301 302 305 306 305 304 303 305 306 306 306 306 306 306 307 308 309 310 311 312 311 312 313 313 314 313 313 314 313 313 314 314 313 314 314 315 318 320 319 318 317 316 318 317 316 317 318 318 318 319 321 321 320 320 320 319 320 321 321 321 321 323 326 325 324 326 327 326 325 326 324 322 322 321 320 321 320 320 320 320 320 322 323 324 324 322 320
303 303 303 303 304 305 303 301 304 306 306 306 306 306 306 307 309 310 311 311 311 311 311 312 313 314 314 314 314 314 314 314 314 313 314 315 317 317 318 320 319 316 318 320 318 316 317 319 317 317 317 317 318 319 322 322 321 321 321 321 321 320 321 323 323 324 325 326 326 325 325 324 323 321 321 320 320 320 320 319 319 319 320 322 323 323 321 321
304 304 302 302 304 305 303 302 304 306 306 306 306 306 307 307 308 310 310 310 311 310 309 311 312 313 314 314 314 314 315 315 315 314 314 316 317 314 314 318 320 318 318 320 319 317 317 318 318 317 317 316 316 317 320 322 321 322 321 320 320 320 321 321 321 322 324 325 325 325 324 325 324 321 323 322 318 318 319 318 317 318 318 319 320 320 320 320
303 303 301 301 303 304 304 304 304 305 306 307 306 305 306 307 307 308 310 310 311 310 309 311 312 312 314 314 313 314 315 315 315 315 315 315 315 313 312 314 316 318 318 318 318 316 316 317 317 317 317 317 317 317 318 319 319 321 321 319 319 320 320 321 320 321 322 323 324 324 325 326 324 323 326 324 319 318 319 317 316 316 316 317 319 320 319 319
301 301 299 300 302 304 305 304 304 305 306 306 306 306 306 307 306 308 310 310 310 310 310 311 311 312 313 314 313 314 314 313 314 314 315 315 314 314 313 312 312 315 316 316 315 314 315 317 316 316 317 317 317 317 316 317 317 318 319 320 319 320 320 319 319 319 320 320 321 322 323 324 322 321 323 322 319 320 319 317 317 316 316 317 318 318 317 316
302 302 301 301 303 304 305 304 304 305 305 306 306 306 306 306 306 308 309 309 309 310 309 309 311 311 311 312 312 313 313 313 313 314 314 315 314 314 314 312 313 314 314 313 313 312 315 316 315 315 316 316 315 316 316 317 317 316 317 318 319 320 320 319 318 318 318 318 319 319 320 320 319 317 318 318 318 319 319 318 317 316 316 317 318 318 316 315
301 302 302 303 304 304 305 305 305 305 305 306 306 306 306 306 306 308 309 308 308 309 309 309 311 311 310 311 311 311 312 313 313 314 313 314 315 314 313 313 314 314 313 313 313 312 313 315 315 315 315 314 314 315 315 316 316 316 316 316 316 317 318 319 319 318 318 318 318 318 318 317 316 315 317 317 316 317 317 317 317 317 317 317 317 317 315 314
300 302 305 306 305 305 305 305 305 306 306 305 306 306 306 306 306 308 308 307 307 309 309 309 311 311 311 311 311 311 312 312 313 314 313 313 313 314 313 313 314 313 312 313 314 312 312 314 315 315 315 314 314 315 316 315 315 315 315 314 315 315 315 316 317 317 317 318 318 318 317 316 315 316 317 317 316 316 316 316 317 316 316 317 318 318 317 315
Wind_Speed
26 25 25 26 28 28 28 27 25 23 22 23 22 21 20 19 18 20 21 19 17 15 13 12 11 11 11 9 8 9 10 11 15 17 17 17 16 16 15 12 11 12 14 12 9 8 8 9 11 11 8 5 4 3 3 3 2 1 2 2 3 4 4 4 3 0 3 5 4 3 4 3 6 4 2 2 2 2 3 3 4 5 6 10 13 16 18 17
27 27 26 25 26 29 29 27 26 25 23 23 23 22 20 19 17 18 21 21 19 16 14 12 11 11 10 10 9 8 9 12 16 19 22 21 17 18 18 18 16 12 12 13 10 10 9 7 10 10 6 3 3 3 2 3 3 3 3 3 4 5 4 3 2 5 5 3 5 4 1 1 4 5 3 2 4 5 5 4 5 6 7 10 13 16 17 17
27 27 27 26 25 28 29 28 28 26 24 23 23 23 21 20 18 17 18 20 20 18 15 12 11 10 10 10 8 7 8 11 13 17 25 26 22 22 21 20 19 14 13 13 11 12 11 10 11 9 5 4 4 4 3 3 3 3 3 3 4 5 4 4 4 5 5 4 3 6 2 1 3 3 2 2 4 6 7 5 7 7 8 9 10 15 17 17
27 27 27 27 25 27 29 29 29 27 25 25 23 23 22 21 19 17 16 18 20 19 16 13 11 10 9 8 7 7 5 8 9 14 23 27 26 27 25 23 19 15 15 16 13 12 12 12 13 8 6 5 4 5 5 3 3 3 4 4 5 3 3 2 3 5 6 5 3 5 2 1 3 3 2 3 3 3 4 3 4 4 8 12 10 12 16 16
28 29 28 27 26 26 27 29 29 27 27 26 24 24 23 22 20 18 16 17 19 19 16 13 11 9 9 7 7 6 3 4 3 3 11 17 23 27 28 26 20 17 17 16 13 12 12 11 11 7 5 5 5 6 6 6 4 3 5 6 8 4 5 2 6 5 5 2 2 2 1 1 3 2 2 4 3 2 1 4 6 5 5 13 12 11 13 13
29 29 28 27 27 27 26 28 28 29 29 27 27 25 25 23 20 19 17 16 18 18 17 14 11 9 9 7 7 7 6 4 3 6 4 6 12 23 28 27 20 18 16 13 13 12 10 8 8 6 5 5 7 7 6 7 6 4 5 6 7 7 7 3 7 2 2 1 3 0 1 2 1 2 3 5 5 2 3 6 6 7 9 14 14 11 11 10
30 29 29 28 27 27 26 27 28 31 31 28 27 26 25 25 22 20 18 17 17 18 17 14 12 10 8 7 7 8 7 7 1 7 10 10 5 15 25 26 22 19 15 13 13 11 8 8 8 6 6 7 7 9 8 8 9 7 6 6 7 9 8 0 5 0 1 2 2 2 2 1 3 3 1 3 5 3 2 6 6 6 10 13 12 10 9 10
30 30 30 29 28 28 26 27 27 30 30 28 27 25 26 26 23 21 19 18 17 18 17 15 13 10 9 8 6 7 8 15 17 3 12 13 6 9 21 24 23 21 16 15 15 11 8 10 10 6 6 7 7 8 9 9 9 10 8 6 8 8 5 1 4 3 1 2 2 2 3 4 5 1 2 3 4 4 2 4 6 6 7 8 8 9 9 9
29 30 31 30 30 29 28 27 27 29 29 30 29 26 26 26 24 22 20 19 18 17 17 16 14 11 10 8 5 9 9 19 31 20 10 10 6 6 18 19 21 21 17 16 17 14 10 8 10 8 6 7 7 8 10 10 7 9 9 7 8 8 3 3 3 4 4 3 2 2 5 6 4 2 1 6 7 7 5 4 6 6 5 5 6 8 8 8
29 30 31 32 30 29 29 28 27 28 29 33 33 29 27 26 24 22 20 19 18 17 16 16 15 12 11 7 7 10 5 10 23 21 13 6 4 7 17 17 20 20 16 15 16 15 10 7 8 7 7 6 7 8 9 10 6 7 9 8 10 12 7 6 6 6 5 4 4 4 5 7 3 3 3 6 6 7 6 5 5 5 5 6 6 7 8 8
31 30 31 32 31 30 29 28 28 28 29 32 33 31 28 26 24 22 21 20 18 17 15 16 15 14 12 8 8 8 3 5 10 8 10 8 4 10 17 16 19 20 15 13 15 16 13 13 10 6 6 4 5 7 9 9 7 9 9 6 10 12 10 9 9 7 5 4 6 6 7 8 4 4 5 5 3 2 3 5 5 6 6 6 7 7 8 8
32 31 31 32 33 32 30 29 29 28 29 31 32 32 28 26 25 22 21 20 18 16 15 16 15 14 11 8 11 11 3 1 4 6 8 8 7 9 13 15 18 20 16 11 14 16 15 12 7 4 3 2 4 5 6 8 7 9 8 6 8 9 10 11 8 6 5 5 5 3 6 8 8 8 6 6 6 3 4 6 5 6 6 6 6 6 6 9
32 31 31 33 34 32 30 30 29 28 29 31 32 32 29 27 27 22 20 20 18 17 15 15 15 13 10 7 11 16 14 5 2 5 8 10 9 8 11 13 16 19 16 13 12 13 14 6 6 5 5 4 4 1 5 5 5 6 6 6 7 7 9 9 7 7 7 7 6 4 3 7 9 11 11 11 12 11 9 8 6 6 5 5 6 6 6 9
33 33 33 33 34 33 31 31 30 29 29 30 32 33 30 29 28 24 21 20 18 17 15 15 14 11 9 8 8 14 19 15 9 6 9 12 12 10 11 11 13 15 15 14 12 10 10 5 7 5 5 6 3 1 3 4 5 5 5 5 5 6 6 8 8 10 10 7 8 7 5 8 6 8 10 12 13 11 10 10 8 7 6 6 6 6 6 7
35 35 35 34 34 33 32 32 30 29 29 30 33 33 30 28 28 24 22 21 19 17 15 14 14 9 6 8 10 13 14 16 17 13 10 12 12 10 10 9 9 12 13 14 13 8 3 3 4 3 4 7 5 2 3 4 4 5 6 6 6 6 5 7 9 12 11 8 10 9 5 6 7 8 6 7 10 9 9 9 8 9 8 7 6 6 6 6
35 37 36 34 34 34 33 32 31 31 30 30 32 32 31 29 27 25 23 21 18 17 15 12 14 10 5 5 6 11 14 14 19 18 12 13 13 10 10 8 6 9 11 12 11 7 3 0 2 2 4 5 5 3 3 3 5 6 7 6 6 6 5 6 7 10 13 9 10 11 5 3 4 8 7 7 9 9 8 8 8 8 8 8 6 6 6 6
36 38 38 35 34 35 34 32 32 32 31 30 31 31 30 28 27 26 23 21 18 18 16 10 11 10 6 5 4 7 15 16 17 19 17 15 13 11 11 7 4 7 9 10 9 6 5 3 1 2 3 4 5 4 4 7 8 5 6 6 6 7 6 5 5 8 12 10 9 11 9 7 5 7 6 5 8 7 6 7 7 7 6 7 6 6 6 6
39 39 38 37 35 34 34 33 32 32 31 31 31 31 30 28 27 25 22 21 17 15 13 7 8 8 6 11 10 8 13 18 18 18 19 18 15 13 11 5 3 5 5 6 6 5 5 4 3 4 4 5 6 7 9 9 8 7 7 6 6 8 8 6 4 5 10 10 9 10 11 11 10 9 8 6 6 7 7 8 7 7 7 7 7 7 6 6
40 39 39 39 36 35 35 34 33 32 32 31 31 31 28 24 21 19 20 19 13 9 9 8 10 9 3 8 15 13 11 17 19 17 19 20 16 15 12 5 4 8 6 5 6 7 6 4 5 6 7 9 10 11 11 7 6 9 9 6 6 7 9 8 5 4 10 9 9 11 11 10 11 10 10 10 8 8 9 8 7 7 7 7 6 6 6 7
41 40 41 40 36 35 36 35 34 33 33 32 32 27 17 12 9 8 13 14 11 11 9 10 14 10 3 3 13 19 11 12 16 14 19 21 17 14 10 5 5 7 9 8 7 7 5 5 7 10 11 12 13 12 11 9 9 10 8 7 8 7 7 9 8 6 9 8 8 11 11 11 11 10 10 10 11 11 11 10 9 8 8 7 7 7 8 8
43 42 42 40 37 37 37 36 34 34 33 32 32 18 5 11 8 5 12 10 14 17 9 9 15 13 1 7 8 19 9 8 12 12 19 22 17 13 7 5 6 5 8 10 8 5 5 7 11 13 13 12 14 13 11 12 12 11 8 7 8 7 6 8 8 7 9 6 6 7 10 11 11 10 10 9 10 11 10 11 11 10 9 7 9 10 10 8
44 43 43 40 38 39 37 35 35 35 32 31 30 12 6 19 9 6 16 7 11 17 12 9 15 14 6 5 2 9 7 7 10 10 18 21 15 11 7 7 8 5 8 9 7 6 6 9 13 14 12 11 12 13 12 13 12 10 8 6 6 5 4 6 8 7 8 5 4 4 7 9 9 10 11 11 10 10 9 11 11 11 10 9 10 10 10 9
45 45 44 40 39 40 36 35 34 34 33 30 28 16 18 28 12 11 20 4 6 15 12 10 11 12 12 2 1 4 6 8 9 9 18 19 12 9 9 9 10 8 9 10 9 9 8 11 14 11 11 12 12 13 13 11 9 8 7 6 6 3 3 4 5 7 7 5 3 3 6 8 8 10 11 11 11 10 11 13 13 11 11 12 12 10 10 10
45 45 44 40 40 40 36 36 33 33 34 29 30 25 28 33 17 17 18 1 4 12 13 14 7 8 12 6 6 6 5 6 7 10 17 18 10 7 9 9 11 9 8 12 12 12 11 9 11 11 12 14 12 12 12 9 7 9 8 7 6 4 5 5 2 4 7 5 2 0 6 8 8 11 12 11 12 13 13 14 15 14 13 13 12 11 11 11
45 44 43 41 40 40 38 35 31 34 33 28 32 31 30 34 22 17 12 1 5 8 11 14 6 6 9 9 12 7 3 5 5 8 17 18 11 8 7 6 7 9 9 13 11 10 9 6 12 15 14 13 12 11 11 9 6 8 9 9 8 5 6 7 3 2 3 4 2 3 5 7 6 11 13 10 12 14 13 15 17 15 13 12 12 12 11 11
43 42 43 41 41 42 33 22 27 34 26 22 31 30 32 38 26 16 8 2 4 5 10 13 6 9 12 8 10 6 4 6 5 10 19 20 15 9 7 4 3 8 10 9 6 5 6 7 13 15 13 13 12 11 12 11 7 6 8 11 11 8 7 7 4 3 2 4 2 5 5 6 4 8 9 8 10 12 11 14 16 13 12 12 11 11 11 11
41 42 42 41 41 41 25 14 24 28 15 17 32 30 33 42 26 12 5 2 4 5 10 11 7 14 15 10 12 8 5 6 5 10 17 19 16 7 7 8 5 7 7 5 5 3 7 11 11 12 12 12 11 11 13 12 8 6 6 10 13 12 11 9 5 4 3 2 3 4 5 7 8 7 7 9 11 11 10 11 12 11 11 12 11 11 11 11
38 41 41 40 41 41 32 20 21 22 19 25 33 30 34 39 21 5 3 4 4 5 8 8 7 13 14 11 15 9 4 7 7 9 13 16 12 2 6 11 10 9 8 7 7 3 6 14 14 14 12 10 11 12 11 10 9 5 3 5 9 11 12 10 6 4 3 2 5 6 4 7 11 6 6 10 13 13 12 11 11 9 10 11 11 11 11 11
35 39 40 41 39 40 39 26 19 23 28 30 32 33 36 32 14 2 3 4 2 3 5 9 9 11 11 11 14 10 6 5 4 5 9 7 5 0 4 8 9 10 9 8 8 1 1 7 10 13 11 10 11 10 10 11 10 5 2 2 3 6 8 8 5 4 3 5 8 8 6 6 11 7 5 7 9 11 10 9 11 11 10 10 9 10 11 11
34 37 39 39 35 37 38 29 25 26 27 31 35 36 32 20 8 4 6 4 2 2 4 7 10 12 15 14 12 13 11 5 3 5 7 4 4 3 1 1 3 5 6 7 9 6 1 2 1 6 7 8 9 8 11 13 8 5 4 2 3 2 2 4 4 4 3 8 11 11 11 8 10 6 5 7 8 8 7 7 10 12 11 10 8 9 11 10
33 34 37 38 35 34 28 20 27 29 27 36 40 34 21 8 4 6 6 3 2 4 5 7 10 14 18 16 10 12 13 7 6 7 6 6 7 7 3 1 1 2 4 5 7 8 6 1 1 2 3 4 7 7 9 10 7 7 5 3 1 2 2 1 1 3 6 10 9 10 11 11 12 6 2 5 6 6 7 7 8 8 9 9 9 9 9 7
31 33 35 37 36 34 26 21 30 31 30 41 38 22 10 4 4 4 4 5 3 5 8 10 13 14 17 17 12 13 13 9 8 9 8 7 7 8 7 6 6 6 6 6 6 7 7 7 6 2 2 2 7 6 3 4 7 7 6 6 5 3 1 2 4 4 7 9 4 7 11 12 13 9 7 9 4 1 3 2 2 4 7 8 9 8 7 7
27 31 34 37 35 35 32 28 29 28 32 40 27 10 6 6 6 4 5 5 4 7 11 13 16 18 19 17 12 13 13 10 10 10 8 8 6 8 8 8 8 7 5 5 7 5 5 7 8 4 1 2 6 6 4 4 8 10 8 9 9 6 4 6 6 4 6 8 3 3 6 7 8 8 11 16 11 4 5 4 3 5 6 5 4 3 3 4
26 30 31 36 37 35 32 27 27 31 36 30 13 6 9 7 5 7 5 4 4 8 11 13 16 17 16 13 11 13 11 9 11 11 8 8 6 7 8 9 10 7 3 5 6 6 7 7 9 10 5 6 8 8 8 7 8 10 9 9 9 6 5 5 6 6 7 6 4 4 4 5 6 3 5 11 13 10 9 7 7 6 3 1 1 0 1 3
26 30 29 32 35 34 32 28 30 37 33 17 6 8 10 6 5 7 6 3 4 8 11 13 15 14 11 9 9 12 9 7 11 10 8 8 6 6 7 8 11 9 5 5 4 6 9 6 9 14 10 12 13 10 7 6 5 5 5 7 9 8 6 2 1 4 3 2 3 6 5 4 3 6 5 4 6 9 9 8 8 7 5 5 6 6 6 6
25 29 27 27 29 32 33 30 34 39 25 9 5 7 6 3 4 7 7 6 6 11 15 13 12 11 9 7 8 12 9 6 10 9 6 7 6 7 7 6 10 11 7 7 3 4 7 5 8 13 9 13 17 12 10 9 6 3 4 7 5 3 3 1 1 2 3 2 4 5 6 5 5 9 9 8 6 7 10 11 12 11 10 10 8 7 7 6
24 22 17 18 25 31 32 31 36 35 18 8 7 5 3 2 4 8 9 7 6 11 15 11 9 9 9 8 8 13 12 6 9 9 5 6 6 8 9 6 11 14 10 8 4 1 5 3 6 12 10 12 14 10 9 8 5 4 6 8 3 3 2 2 1 1 2 4 4 5 9 8 5 6 6 11 12 10 10 11 12 12 10 9 8 8 8 7
18 12 7 13 26 31 30 33 35 24 9 7 7 4 4 3 4 8 9 7 7 11 12 8 7 9 10 10 10 14 15 9 10 10 7 6 5 9 13 7 10 16 14 11 5 2 2 1 3 12 13 11 10 8 5 7 7 3 3 5 4 0 2 3 3 3 4 5 4 6 9 8 7 6 3 6 11 10 9 9 10 10 10 9 9 8 5 3
12 6 3 13 27 31 32 34 29 14 4 6 7 5 4 2 4 8 9 8 9 10 10 6 6 8 10 11 11 13 14 11 11 10 8 7 5 10 16 9 8 14 14 13 7 2 1 1 3 6 7 8 9 7 6 8 9 3 2 1 2 0 2 5 4 3 3 6 5 6 7 5 7 8 5 7 8 7 8 9 9 10 10 8 5 1 3 5
8 3 2 17 28 31 36 31 17 7 4 5 6 5 5 4 4 8 9 9 8 5 6 7 8 9 10 11 10 10 11 11 11 8 6 7 6 8 14 11 9 12 13 13 10 2 2 1 3 2 4 5 6 6 8 11 10 6 3 4 3 2 0 0 2 2 1 3 4 6 6 4 3 4 6 10 10 8 10 10 10 10 7 4 5 6 5 5
5 2 3 22 34 35 34 19 6 4 4 5 5 4 6 5 3 6 9 8 5 0 1 6 8 8 9 10 10 9 9 9 9 7 5 8 8 6 10 13 11 11 12 11 9 6 3 2 4 3 4 4 3 1 1 5 9 9 8 7 7 6 3 2 3 2 1 2 3 4 7 5 2 0 1 4 5 6 9 9 8 5 5 7 6 6 5 5
5 3 7 27 40 36 24 8 2 4 3 4 5 3 6 5 2 7 10 8 4 1 1 3 6 6 7 9 10 10 9 7 9 8 6 9 10 6 8 13 11 10 10 8 8 6 3 2 2 3 3 3 1 2 4 4 1 5 5 7 8 6 5 6 6 3 3 4 3 3 6 5 1 2 3 2 4 5 2 4 8 7 7 7 6 6 6 5
4 2 9 33 44 33 15 5 4 4 0 3 5 3 6 7 4 5 8 8 5 2 1 3 5 6 6 6 9 11 10 8 9 10 8 9 10 5 8 12 11 10 8 6 7 5 3 2 3 2 2 2 2 2 4 6 4 1 1 3 6 8 9 7 4 2 3 5 4 3 6 6 2 1 2 3 5 8 8 8 9 8 6 6 6 6 5 4
4 1 4 29 44 29 9 4 6 5 2 4 5 2 2 6 6 4 6 8 5 3 3 4 5 5 4 5 8 11 10 7 7 9 6 7 7 4 8 13 11 9 8 6 7 7 4 4 5 3 3 2 1 1 0 1 2 2 2 3 4 7 7 3 1 1 2 6 8 6 6 6 2 2 2 4 6 8 8 7 8 7 6 5 5 5 4 3
4 1 1 15 28 20 5 1 5 8 8 8 8 6 3 5 6 6 6 6 3 3 3 2 5 5 4 5 7 9 10 5 5 8 6 5 4 1 4 10 10 7 6 7 8 7 5 4 6 7 7 6 6 6 5 3 3 1 1 4 5 7 7 3 1 3 5 7 9 7 6 6 2 4 2 4 7 7 7 7 7 7 6 5 5 4 3 1
3 1 1 4 8 8 3 1 1 5 9 11 8 7 8 7 4 4 5 3 0 3 4 1 4 5 4 7 7 9 10 4 3 6 7 5 3 2 2 3 8 7 5 9 11 7 2 3 6 9 9 9 7 5 3 2 4 3 5 9 10 11 12 7 3 4 3 3 7 9 8 8 5 1 2 3 6 6 6 6 6 6 6 6 5 2 1 2
1 1 2 2 2 4 2 1 1 2 6 10 8 7 10 9 6 5 4 1 1 4 3 2 4 4 6 9 8 7 9 4 3 6 9 5 3 2 4 5 2 6 6 7 7 4 3 4 7 9 10 11 9 6 1 4 4 6 9 11 11 12 13 11 8 6 3 1 6 4 3 8 10 5 3 1 4 5 4 4 5 4 5 5 4 2 2 2
1 2 2 2 1 6 6 5 6 4 6 8 6 7 11 11 11 8 4 2 2 5 3 2 5 7 7 8 6 6 8 5 2 5 8 5 3 3 3 5 3 4 6 3 1 2 2 5 7 7 9 10 9 8 5 1 1 5 8 9 10 11 13 13 13 10 6 6 7 2 3 7 11 4 1 1 1 3 3 2 3 1 2 5 4 3 3 5
1 3 2 3 2 4 7 10 12 8 9 8 5 7 10 12 13 8 3 5 6 7 7 6 7 8 8 7 6 6 8 7 4 5 5 6 5 4 3 2 2 2 4 3 1 1 2 3 3 4 5 8 9 9 8 7 6 5 6 7 7 9 11 12 12 12 11 11 11 8 8 11 11 6 4 6 4 3 4 4 3 4 1 4 5 3 3 5
2 2 2 1 2 2 4 9 12 8 7 7 5 6 9 12 13 7 3 6 8 8 9 8 8 9 9 8 6 5 7 6 6 6 5 6 6 4 3 2 2 3 3 3 2 1 2 2 2 3 2 7 9 9 8 9 9 10 10 8 6 7 8 9 10 10 9 10 11 11 12 12 11 9 8 10 9 5 7 10 8 6 1 5 5 4 4 5
2 2 3 3 2 2 4 7 9 8 6 6 5 6 9 12 13 7 3 4 6 6 8 8 7 8 8 8 9 6 5 5 8 9 7 6 6 5 3 3 5 6 4 3 3 1 1 2 2 3 2 7 8 9 9 9 10 12 12 10 9 9 8 8 9 9 10 10 10 10 10 10 12 10 7 11 14 12 13 14 12 7 2 6 5 5 5 5
2 2 1 3 3 2 4 6 7 7 7 7 7 8 9 11 11 8 4 3 3 4 6 6 6 7 6 8 8 5 4 4 5 6 6 5 6 6 5 5 8 9 6 4 3 3 3 3 2 3 3 7 8 8 7 6 6 8 10 12 13 13 13 12 12 12 13 11 9 10 10 11 12 9 8 13 17 14 12 11 11 10 6 4 5 6 5 5
Wind_Direction
263 263 260 255 250 246 243 243 242 241 238 240 243 244 246 248 249 250 248 245 247 250 254 264 271 273 272 271 268 269 274 269 264 254 240 242 240 235 243 243 242 247 244 249 253 263 270 245 236 230 223 213 201 220 196 184 210 217 208 219 251 248 245 247 224 46 96 127 131 163 191 152 134 154 128 126 201 155 156 171 134 101 88 107 125 131 134 140
262 263 262 259 254 248 243 241 240 239 238 237 238 241 243 244 245 248 249 246 245 247 251 258 266 270 270 271 269 273 276 271 269 261 250 247 245 238 238 237 240 247 238 239 246 244 249 243 229 219 217 222 183 183 181 165 183 216 239 225 231 250 274 295 31 43 44 91 120 132 227 36 126 149 136 169 195 178 180 183 159 140 109 118 134 138 141 146
261 261 263 262 258 251 245 241 238 237 237 236 234 236 239 242 243 244 248 247 244 244 246 250 259 266 268 268 270 276 280 282 273 263 259 252 243 239 235 234 235 237 235 231 240 244 246 258 250 225 211 231 198 180 179 162 173 205 234 247 240 248 298 356 55 64 49 18 104 115 58 15 120 132 149 215 219 187 191 191 178 181 162 151 151 148 150 153
261 260 260 261 258 254 248 242 239 236 235 236 233 232 235 238 242 242 244 247 245 241 241 245 251 258 262 262 266 268 278 292 274 256 261 255 244 236 233 236 234 229 231 228 236 256 257 262 263 243 215 228 219 203 198 181 167 194 213 237 250 258 320 331 79 75 67 13 19 97 108 204 109 94 149 214 251 216 209 181 151 186 172 160 158 157 158 158
260 259 256 256 256 254 250 243 239 236 233 233 234 232 232 235 239 240 240 244 245 239 236 238 243 251 255 252 256 253 235 274 277 230 253 256 245 234 230 236 233 222 225 230 239 257 258 258 259 240 223 229 223 220 208 196 188 228 235 241 257 279 306 347 70 54 63 30 328 85 183 149 96 101 187 221 246 193 138 66 74 51 114 148 154 157 162 164
258 260 256 253 254 254 250 244 240 237 233 231 232 231 230 232 234 237 238 239 242 239 231 232 237 242 245 240 245 234 205 225 40 47 342 303 248 228 227 231 227 218 219 231 240 243 242 248 252 223 215 228 224 228 211 198 200 235 247 243 259 273 282 26 74 29 27 294 258 8 320 75 111 233 197 213 234 190 100 83 82 66 98 137 148 154 169 174
255 257 256 253 252 253 251 247 243 239 234 231 231 230 228 229 230 232 234 233 237 237 228 226 230 235 240 229 231 228 220 239 283 32 358 344 288 221 222 224 220 215 212 222 228 231 226 224 238 218 213 225 222 230 223 212 213 227 240 235 242 245 251 157 96 88 327 282 305 15 311 258 246 257 145 210 238 267 45 94 103 95 113 134 147 160 178 183
255 254 255 253 251 250 250 249 245 239 235 230 228 228 227 226 226 227 229 231 233 235 227 221 223 228 230 218 221 229 235 238 228 260 1 347 335 207 208 213 213 209 207 218 217 217 222 216 222 218 217 223 222 227 228 226 220 226 230 232 251 244 239 229 120 134 232 263 30 355 281 259 251 267 67 259 258 267 255 129 119 115 130 148 161 169 181 187
255 254 253 253 250 249 248 248 245 240 236 232 226 224 225 224 224 223 226 230 231 231 227 219 218 221 224 214 223 238 240 236 233 246 316 341 354 187 193 198 203 201 204 217 220 217 217 215 216 222 231 230 232 231 231 232 218 224 223 212 255 260 219 234 211 174 201 217 147 226 254 254 249 84 183 244 247 253 247 174 141 146 161 173 180 178 183 188
254 253 252 252 250 248 247 246 244 240 238 235 227 223 225 222 222 221 221 226 227 228 225 217 212 215 219 209 222 237 234 234 239 247 257 287 353 177 183 189 192 194 203 213 223 224 218 224 222 232 256 252 243 237 234 238 230 231 225 205 234 250 226 205 225 219 209 205 201 222 248 252 225 122 220 237 231 233 230 202 174 182 191 191 191 184 184 190
252 250 250 251 250 247 244 242 243 240 238 236 228 222 222 219 219 218 217 221 221 221 221 213 208 211 215 209 224 231 179 221 241 233 229 243 241 185 184 188 187 190 202 210 225 231 225 234 243 247 247 250 257 253 244 243 249 238 230 227 231 242 246 221 208 210 218 209 203 226 253 254 230 185 215 245 256 141 186 214 200 196 199 206 203 185 180 189
252 249 248 251 249 247 244 241 241 239 237 236 227 219 216 215 217 214 214 216 216 217 215 210 204 208 216 224 234 227 183 213 240 210 211 214 209 201 192 189 187 190 198 206 223 233 232 241 276 285 255 243 236 258 266 243 249 248 234 250 247 239 246 238 215 190 206 214 184 200 257 246 234 229 214 229 256 233 216 228 211 204 201 208 209 194 184 185
252 249 248 249 247 245 245 241 238 237 235 233 225 218 214 214 215 211 210 212 213 213 211 207 202 206 218 236 244 236 236 255 283 211 194 180 180 192 200 194 192 195 201 212 221 232 242 271 354 320 305 290 220 231 309 247 221 249 241 241 252 248 236 229 218 199 210 215 173 148 247 240 226 228 215 207 227 232 230 230 227 231 221 215 208 203 198 184
251 249 246 246 246 245 245 241 237 235 233 230 224 218 214 214 213 207 205 207 209 211 208 203 200 204 223 245 256 244 239 239 244 223 186 182 176 179 201 199 195 201 207 221 227 230 245 310 359 315 295 282 254 51 306 237 195 214 239 236 227 241 233 212 205 202 210 207 176 170 233 248 233 236 227 208 210 220 230 233 233 236 232 229 214 204 210 193
250 248 243 243 246 245 243 239 236 234 233 230 224 218 213 214 212 204 202 202 203 208 203 199 197 199 237 257 258 247 233 225 225 220 198 193 180 172 195 193 195 209 211 219 228 226 232 349 344 299 270 262 269 261 223 221 204 194 215 228 213 225 240 225 212 198 201 202 185 184 230 250 239 254 254 198 190 205 225 231 228 228 227 229 223 208 211 207
249 247 242 240 242 244 242 238 236 233 232 230 226 220 213 213 210 203 202 198 198 202 194 194 198 202 253 254 229 224 217 215 216 213 207 200 187 169 172 176 196 212 211 213 221 219 179 37 294 277 272 252 239 223 206 212 213 200 210 223 208 213 230 231 227 204 196 199 191 191 221 249 230 245 231 180 182 199 215 220 219 223 224 226 228 217 211 212
248 246 241 236 236 240 240 237 235 231 229 227 223 217 209 210 210 204 200 193 194 195 188 194 192 192 259 255 198 195 199 205 208 204 206 201 192 174 159 163 197 209 214 203 203 202 172 172 201 230 254 238 219 202 202 211 208 199 207 227 225 220 226 207 219 217 196 193 192 195 223 246 253 264 247 192 181 189 213 226 224 228 233 233 231 228 221 215
247 245 241 235 233 235 237 235 232 229 227 223 217 211 205 205 206 203 194 186 184 184 191 210 184 182 250 240 222 208 194 196 199 199 200 196 193 185 169 166 163 179 211 194 185 192 176 180 192 196 214 220 214 202 207 210 200 198 200 216 230 231 239 219 210 210 183 187 200 203 220 231 237 253 259 243 199 189 215 224 228 234 236 237 231 227 229 224
245 244 242 236 231 232 234 232 228 226 224 220 214 207 201 197 196 199 191 179 169 169 192 194 181 183 232 229 213 212 203 189 192 198 192 185 185 184 176 178 170 167 181 172 173 190 179 176 192 200 206 208 209 208 215 217 209 213 209 210 217 222 236 234 232 184 168 189 212 217 232 235 229 230 235 242 230 219 224 221 222 227 229 237 239 233 230 230
243 241 239 235 229 229 232 229 226 224 219 215 208 199 195 182 168 192 190 184 190 196 196 182 191 197 55 353 200 195 197 177 184 195 187 179 169 171 175 183 200 183 178 165 164 184 184 184 197 204 204 200 205 216 221 227 238 235 226 223 219 220 229 228 234 191 170 200 214 217 238 243 239 235 228 232 234 233 235 235 235 229 223 227 236 243 240 235
239 236 235 233 228 227 230 229 226 221 216 211 201 196 190 163 149 178 180 194 212 209 215 185 195 210 314 1 174 171 167 168 187 191 180 174 159 162 177 185 205 206 184 160 140 165 191 202 208 205 203 198 200 213 220 223 236 243 242 242 227 225 227 221 228 188 167 205 222 220 241 242 241 245 239 234 234 234 232 235 239 234 229 224 223 232 236 236
235 232 231 229 227 227 226 225 225 220 215 207 198 204 195 170 152 166 172 190 219 214 242 204 189 212 233 351 92 156 154 171 197 188 169 168 164 174 176 182 210 212 180 157 129 160 195 215 215 203 200 205 202 205 217 225 233 238 240 252 244 233 229 223 227 198 176 199 213 231 262 259 251 251 246 239 238 238 233 234 236 232 232 231 225 224 225 227
231 228 227 226 225 225 223 222 223 219 213 203 196 205 194 179 155 153 168 170 208 204 238 219 186 207 211 236 325 194 173 168 192 187 171 171 174 189 176 179 213 209 181 175 160 168 196 216 210 201 200 208 210 201 206 221 231 234 231 240 244 242 252 229 216 216 214 209 185 215 263 266 263 264 258 248 244 243 239 239 239 233 231 233 232 229 225 223
227 222 222 223 223 223 221 219 221 215 209 202 204 210 192 179 161 159 171 179 190 191 219 218 202 206 203 186 178 195 191 182 194 176 174 179 170 181 190 184 204 213 197 191 183 184 206 206 185 198 208 205 212 206 203 211 221 230 228 233 238 224 243 251 246 247 239 232 191 211 279 266 248 252 253 247 245 242 238 240 240 235 232 233 235 235 233 230
222 218 218 218 219 220 217 216 217 210 205 203 208 212 192 177 170 175 184 264 192 178 199 209 229 222 199 171 166 172 183 212 232 170 170 187 177 164 197 191 195 212 202 197 198 201 213 180 168 196 207 200 208 209 205 205 210 228 221 225 240 233 238 252 272 290 267 261 190 139 269 268 223 231 241 237 234 235 232 235 239 237 233 233 235 235 234 236
218 216 216 214 217 217 212 213 213 206 204 204 203 205 191 178 176 190 200 307 212 167 169 180 187 193 185 170 161 150 186 211 231 173 168 187 188 170 189 182 192 215 196 192 207 218 211 180 180 198 199 194 205 214 210 203 206 227 204 205 227 242 251 252 246 221 221 259 213 166 228 264 235 233 246 252 247 236 225 230 235 234 233 231 231 234 231 231
216 214 214 213 215 211 204 206 206 199 202 204 197 194 181 174 176 195 205 264 219 155 156 169 173 177 173 165 157 160 200 172 163 178 173 185 189 185 202 181 181 211 186 182 214 210 187 186 192 200 196 194 201 211 208 199 209 219 178 183 204 219 235 240 238 233 235 284 275 228 239 273 271 248 238 251 259 252 236 232 232 223 221 224 223 225 226 227
215 213 212 212 212 207 204 202 193 193 205 199 189 181 172 172 176 183 179 216 204 141 147 161 162 165 161 156 162 184 222 145 160 185 169 180 186 187 224 199 192 193 174 185 210 197 178 192 194 192 198 204 202 207 200 196 219 218 156 187 199 204 218 224 225 235 254 287 260 244 238 273 270 247 209 227 241 246 241 238 241 231 220 219 218 218 221 227
212 211 211 209 209 208 207 202 195 202 204 191 180 172 167 169 168 137 213 217 185 149 149 152 153 151 150 156 168 196 222 158 175 160 135 170 200 142 233 216 206 191 179 197 211 200 162 205 200 190 198 209 204 201 187 198 222 202 110 325 250 208 205 206 208 206 230 246 238 225 197 245 272 259 210 216 228 236 235 234 240 238 233 227 214 211 219 226
209 209 210 206 205 205 201 202 208 204 193 183 176 166 160 159 157 182 219 209 133 162 157 161 166 153 155 163 170 192 203 181 141 138 134 152 186 190 266 273 228 195 186 208 224 229 189 23 308 208 210 210 202 192 186 201 207 150 126 349 341 309 204 188 195 168 201 241 235 218 195 220 268 259 208 220 222 219 217 220 231 230 229 230 217 211 219 222
207 209 211 207 203 199 194 201 207 199 188 180 169 157 152 156 180 196 200 178 116 142 145 159 164 153 156 161 166 186 196 188 150 164 172 157 172 191 187 156 158 183 200 207 223 228 213 162 46 246 253 207 190 190 193 199 183 145 145 148 105 340 358 24 207 171 212 239 230 208 197 217 245 238 206 240 210 195 208 204 214 217 207 214 221 223 225 215
208 209 211 209 203 197 196 199 197 194 184 172 162 152 155 175 210 209 163 152 164 163 157 160 162 160 160 162 168 179 187 190 170 176 184 168 180 192 190 190 170 178 207 200 197 209 217 213 189 184 318 227 190 184 178 179 170 161 150 150 166 192 191 202 213 201 222 240 224 179 189 214 242 250 262 270 270 353 286 234 183 216 203 207 221 228 226 209
208 206 206 206 200 197 200 198 191 188 175 165 160 155 169 187 197 175 144 161 189 175 165 166 166 166 164 166 174 175 181 190 175 178 186 176 189 197 201 205 185 191 208 190 194 193 207 217 197 185 326 221 197 179 168 172 171 173 165 167 181 184 185 201 210 216 229 242 244 192 206 222 247 248 231 243 253 248 253 246 226 232 212 191 194 214 212 180
208 204 203 201 200 199 197 190 183 177 168 162 158 164 183 198 168 147 165 196 182 163 162 163 160 161 168 175 175 167 178 196 180 179 184 175 187 197 202 208 199 208 209 180 195 194 209 218 189 190 183 168 192 195 181 172 175 184 177 176 186 184 190 199 201 214 227 237 211 201 238 212 208 227 199 221 231 214 204 207 223 246 253 157 127 214 173 160
209 205 204 199 200 201 194 187 179 169 163 158 162 182 189 186 144 155 179 185 163 156 155 155 152 156 172 179 174 171 180 191 178 184 188 179 192 192 192 204 199 202 204 194 192 188 220 241 178 187 181 159 182 199 171 155 181 201 170 177 198 200 197 196 165 178 192 262 200 193 239 225 228 306 310 250 230 210 208 213 221 237 239 229 236 231 217 206
206 205 205 195 195 197 192 188 177 168 163 160 178 192 190 164 150 167 172 179 182 157 146 148 153 159 168 173 177 180 186 184 174 185 197 185 201 199 189 195 193 198 202 199 200 169 209 239 167 176 182 173 183 184 167 169 176 177 180 190 208 216 182 157 352 111 112 262 223 199 246 262 278 291 272 247 234 202 208 219 221 220 215 217 232 238 231 224
203 202 203 192 191 193 189 181 171 166 163 172 190 194 176 164 171 171 173 178 177 156 147 148 163 167 164 167 181 181 181 183 173 180 190 183 199 198 192 192 186 197 206 203 233 214 200 237 160 163 181 190 184 166 168 192 175 151 194 189 140 20 36 100 246 176 147 244 231 203 231 238 238 259 236 218 219 209 206 214 219 220 214 215 231 239 239 236
193 186 189 189 189 189 185 175 167 161 159 182 188 175 167 191 174 175 186 175 157 161 160 154 163 172 167 168 181 180 176 175 173 178 183 183 198 188 185 194 188 194 201 198 224 298 199 256 176 173 182 180 165 148 166 225 219 192 204 177 139 96 198 160 204 204 187 228 242 211 224 230 223 235 243 214 214 207 203 211 217 217 208 210 228 241 256 287
170 168 200 186 185 184 178 169 163 160 173 190 185 172 178 219 190 188 197 179 164 170 173 161 153 169 177 173 175 175 176 180 176 178 185 181 196 187 181 186 189 190 194 189 200 301 57 204 226 191 174 158 159 168 181 204 209 201 35 138 143 188 194 177 198 215 191 217 241 228 219 223 228 234 255 259 236 193 187 207 216 215 209 207 209 188 47 49
153 164 187 174 176 174 168 163 163 171 179 189 196 174 165 192 211 209 207 186 173 178 183 169 151 162 174 171 169 168 176 184 176 178 192 177 186 194 181 179 184 183 184 185 189 178 75 218 231 163 122 153 179 193 197 196 191 178 162 180 177 175 223 211 206 215 194 204 230 245 242 232 222 221 233 249 247 213 201 207 209 209 196 141 95 90 88 82
159 193 170 169 167 161 158 161 174 178 172 188 196 169 166 182 200 204 210 201 189 286 230 174 156 160 165 163 169 171 172 181 176 178 192 183 191 201 182 180 182 174 173 184 193 182 153 191 208 159 137 181 201 156 223 215 191 185 190 189 184 181 178 206 211 188 179 212 211 243 257 247 211 296 261 252 264 249 228 208 189 177 122 99 94 96 97 94
167 193 158 164 163 155 155 172 191 161 183 187 171 154 168 180 206 190 191 197 192 22 323 179 155 159 164 162 167 167 166 175 180 181 192 199 202 199 178 177 176 168 166 181 194 176 122 112 193 215 189 179 156 55 24 5 142 184 202 189 181 183 184 201 212 174 165 214 227 253 267 258 238 357 7 22 23 10 352 115 111 99 91 96 97 87 84 87
166 198 154 159 160 155 157 194 173 149 193 151 141 149 174 180 203 192 175 178 177 126 151 181 159 162 171 162 159 163 166 175 189 189 191 202 205 196 170 168 168 168 163 176 187 161 89 108 179 228 198 131 24 32 43 32 53 110 228 191 181 190 196 205 211 149 157 196 203 225 249 252 267 27 62 63 55 52 50 70 88 91 88 90 93 90 83 76
143 3 147 159 160 159 164 191 167 152 132 125 128 135 201 188 190 192 171 170 168 141 157 171 162 164 169 154 154 165 167 169 195 198 189 192 199 187 170 172 171 172 172 177 176 168 171 172 171 202 201 166 204 260 264 41 134 169 198 197 203 204 202 197 97 115 196 193 193 210 237 243 284 29 94 97 83 78 72 74 83 87 86 83 84 88 84 72
135 52 16 156 162 167 175 179 165 160 155 150 149 153 157 167 187 197 167 150 150 158 155 166 158 147 151 154 148 165 175 169 183 195 194 181 179 165 175 176 175 177 180 168 153 158 192 186 175 199 210 199 199 218 234 213 167 152 159 174 198 215 211 190 120 212 217 191 191 214 240 244 326 23 63 105 99 98 93 85 78 74 68 70 82 92 104 104
144 136 54 124 157 178 178 53 152 171 162 155 153 163 163 157 180 198 156 124 248 161 137 137 140 115 145 169 156 167 183 169 123 177 190 172 145 29 32 151 177 184 158 144 146 144 176 205 193 203 219 223 219 226 233 128 131 165 186 185 192 204 211 213 211 208 204 192 207 216 231 246 258 228 165 121 95 90 80 70 68 65 54 55 78 97 199 213
136 100 131 90 116 175 167 62 144 184 169 160 155 167 169 159 159 171 158 128 260 168 130 92 139 141 170 173 161 167 174 146 94 170 178 157 104 59 34 36 148 166 121 127 157 138 129 208 206 205 226 239 244 247 201 96 120 173 188 198 198 194 199 211 224 211 147 203 237 210 190 246 248 221 167 106 66 54 35 39 54 66 65 65 78 54 16 92
32 71 85 13 103 170 177 171 163 164 172 171 162 161 164 162 164 171 158 122 166 186 167 146 184 185 175 166 156 157 164 152 147 176 167 145 111 100 63 19 30 115 96 92 179 105 137 211 204 198 231 249 253 260 260 250 158 171 183 201 205 200 198 205 223 222 199 220 242 188 120 236 246 234 145 285 355 13 339 4 33 27 99 96 95 69 55 80
102 81 63 349 357 163 165 162 160 164 176 177 168 166 171 171 172 171 129 131 166 193 187 183 192 185 174 173 164 159 173 174 174 185 162 138 137 125 109 25 4 85 98 96 113 115 161 216 193 172 233 257 254 257 261 259 257 232 208 203 193 199 206 212 225 227 220 229 238 225 214 232 239 231 238 257 263 314 311 308 317 288 267 98 105 102 78 80
134 102 121 80 20 74 119 146 157 162 175 182 183 180 181 182 178 166 128 157 172 186 192 189 184 179 182 190 191 185 182 158 138 165 158 131 143 152 136 139 134 128 117 108 126 195 214 202 152 120 240 265 255 247 243 240 247 249 240 228 210 205 209 215 228 235 233 236 240 239 240 247 249 244 252 264 268 279 280 278 278 276 348 83 104 112 94 81
90 79 130 126 96 104 121 142 158 162 172 190 193 178 182 192 184 159 124 172 169 167 183 183 168 171 185 197 204 201 177 150 151 166 171 156 152 154 153 154 140 138 148 153 138 133 201 175 98 102 234 258 246 236 235 229 236 245 243 236 227 222 219 215 216 220 222 225 232 239 243 249 254 246 239 254 258 251 250 258 262 252 158 103 116 137 136 136
94 78 97 107 96 132 144 141 157 169 178 187 188 183 186 189 179 158 133 170 172 151 171 178 161 160 181 203 205 178 115 123 150 156 167 167 150 150 168 161 142 144 162 165 134 128 158 159 122 145 213 261 251 227 219 217 231 242 234 226 223 223 226 228 225 221 219 215 218 229 232 237 248 246 231 241 246 239 236 241 243 242 227 154 157 169 171 176